Flag for Germany Weather past 2 weeks in Korschenbroich, North Rhine-Westphalia, Germany

Now
54 °F

Sunny.


Feels Like: 54 °F
Forecast: 39 / 62 °F
Wind: 2 mph from North

Location: Monchengladbach Airport

Current Time: Apr 19, 2015 at 12:19:51 PM

Latest Report: Apr 19, 2015 at 11:50 AM


Visibility: 10 mi

Pressure: 30.18 "Hg

Humidity: 63%

Dew point: 41 °F

Location of KorschenbroichLocation

Historic Weather in Korschenbroich — Graph

°F

Korschenbroich temperature yesterday

Maximum temperature yesterday: 57 °F (at 3:20 PM)
Minimum temperature yesterday: 39 °F (at 7:50 AM)
Average temperature yesterday: 53 °F

Past Weeks' High & Low Weather Summary

 TemperatureHumidityPressure
High75 °F (Apr 15, 3:20 PM)100% (Apr 5, 8:20 AM)30.66 "Hg (Apr 5, 8:20 AM)
Low32 °F (Apr 5, 7:50 AM)27% (Apr 10, 2:50 PM)29.92 "Hg (Apr 15, 6:50 PM)
Average54 °F61%30.26 "Hg
* Reported Apr 4 11:20 AM — Apr 19 11:20 AM, Korschenbroich, Weather by CustomWeather, © 2015

Note: Actual official high and low records may vary slightly from our data, if they occured in-between our weather recording intervals... More about our weather records

Advertising

Korschenbroich weather history for previous 24 hours

 ConditionsComfort  
Time TempWeatherWind HumidityBarometerVisibility
11:20 AM
Sun, Apr 19
48 °FPassing clouds.5 mph71%30.18 "HgN/A
10:50 AM46 °FSunny.3 mph76%30.18 "Hg10 mi
10:20 AM46 °FPassing clouds.5 mph82%30.18 "HgN/A
9:50 AM45 °FPassing clouds.5 mph81%30.18 "HgN/A
9:20 AM43 °FPassing clouds.6 mph93%30.18 "HgN/A
8:50 AM43 °FPassing clouds.5 mph93%30.18 "HgN/A
8:20 AM41 °FSunny.1 mph93%30.18 "Hg10 mi
7:50 AM39 °FSunny.2 mph100%30.18 "Hg10 mi
8:20 PM
Sat, Apr 18
54 °FClear.6 mph41%30.24 "Hg10 mi
7:50 PM55 °FPassing clouds.7 mph38%30.24 "HgN/A
7:20 PM57 °FPassing clouds.7 mph33%30.24 "HgN/A
6:50 PM57 °FPassing clouds.8 mph36%30.27 "HgN/A
6:20 PM57 °FPassing clouds.8 mph36%30.27 "HgN/A
5:50 PM57 °FPassing clouds.8 mph36%30.27 "HgN/A
5:20 PM57 °FPassing clouds.8 mph33%30.27 "HgN/A
4:50 PM57 °FPassing clouds.9 mph33%30.27 "HgN/A
4:20 PM57 °FPassing clouds.10 mph33%30.30 "HgN/A
3:50 PM55 °FPassing clouds.9 mph36%30.30 "HgN/A
3:20 PM57 °FPassing clouds.10 mph39%30.30 "HgN/A
2:50 PM55 °FPassing clouds.10 mph41%30.30 "HgN/A
2:20 PM54 °FPassing clouds.18 mph41%30.33 "HgN/A
1:50 PM54 °FPassing clouds.16 mph41%30.33 "HgN/A
1:20 PM55 °FPassing clouds.17 mph41%30.33 "HgN/A
12:50 PM54 °FPassing clouds.17 mph41%30.33 "HgN/A
12:20 PM54 °FPassing clouds.12 mph44%30.33 "HgN/A
Weather by CustomWeather, © 2015

See weather overviewHow to use our weather pages